CYP464 LCLK-LGSK

Flight info

Callsign CYP464
Flight time 1h 37m
Altitude 36000
Route PHA M31 GENOS DCT PEDER DCT EVENO UM601 RDS/N0418F240 R19 RIPLI/N0453F360 UN137 SKP
Aircraft A320/M-SDE3FGHIRWY/LB1

Departure

Time 2026-05-05 06:05
Airport Larnaca International Airport (LCLK)

Arrival

Time 2026-05-05 07:42
Airport Skiathos Island National Airport (LGSK)
Time Latitude Longitude Altitude Speed Heading
2026-05-05 05:31 34.87076 33.61016 22 ft 0 kts 224°
2026-05-05 05:55 34.87079 33.61019 21 ft 3 kts 225°
2026-05-05 05:56 34.87096 33.61044 22 ft 4 kts 240°
2026-05-05 05:56 34.87104 33.61067 24 ft 2 kts 255°
2026-05-05 05:56 34.87114 33.61091 20 ft 4 kts 193°
2026-05-05 05:56 34.87132 33.61083 24 ft 4 kts 135°
2026-05-05 05:57 34.87142 33.61072 20 ft 0 kts 135°
2026-05-05 05:59 34.87138 33.61076 20 ft 4 kts 136°
2026-05-05 06:00 34.87089 33.61134 20 ft 14 kts 136°
2026-05-05 06:00 34.87021 33.61217 20 ft 13 kts 135°
2026-05-05 06:00 34.86957 33.61294 20 ft 12 kts 134°
2026-05-05 06:00 34.86962 33.61388 17 ft 13 kts 46°
2026-05-05 06:01 34.87033 33.61476 16 ft 17 kts 46°
2026-05-05 06:01 34.87112 33.61573 19 ft 15 kts 45°
2026-05-05 06:01 34.87185 33.61664 19 ft 16 kts 46°
2026-05-05 06:01 34.87245 33.61737 18 ft 17 kts 43°
2026-05-05 06:02 34.87324 33.61828 19 ft 18 kts 45°
2026-05-05 06:02 34.87419 33.61943 17 ft 21 kts 44°
2026-05-05 06:02 34.87513 33.62082 16 ft 21 kts 81°
2026-05-05 06:02 34.87442 33.62219 20 ft 19 kts 134°
2026-05-05 06:03 34.87364 33.62340 20 ft 17 kts 126°
2026-05-05 06:03 34.87325 33.62333 18 ft 5 kts 211°
2026-05-05 06:03 34.87320 33.62327 18 ft 0 kts 219°
2026-05-05 06:04 34.87206 33.62190 19 ft 64 kts 226°
2026-05-05 06:04 34.86694 33.61556 20 ft 141 kts 226°
2026-05-05 06:05 34.85950 33.60596 496 ft 158 kts 230°
2026-05-05 06:05 34.85201 33.59621 1326 ft 159 kts 228°
2026-05-05 06:05 34.84445 33.58640 2129 ft 158 kts 231°
2026-05-05 06:05 34.83662 33.57622 2444 ft 174 kts 231°
2026-05-05 06:06 34.82784 33.56476 2685 ft 197 kts 230°
2026-05-05 06:06 34.81793 33.55190 2959 ft 221 kts 231°
2026-05-05 06:06 34.80672 33.53737 3327 ft 246 kts 230°
2026-05-05 06:06 34.79482 33.52206 4024 ft 255 kts 230°
2026-05-05 06:07 34.78246 33.50627 4878 ft 260 kts 229°
2026-05-05 06:07 34.76986 33.49021 5738 ft 263 kts 229°
2026-05-05 06:07 34.75728 33.47420 6602 ft 266 kts 229°
2026-05-05 06:07 34.74441 33.45781 7457 ft 269 kts 229°
2026-05-05 06:08 34.73140 33.44122 8328 ft 271 kts 229°
2026-05-05 06:08 34.71836 33.42455 9214 ft 273 kts 229°
2026-05-05 06:08 34.70528 33.40790 10040 ft 275 kts 229°
2026-05-05 06:08 34.69322 33.38914 10438 ft 291 kts 243°
2026-05-05 06:09 34.68540 33.36586 10628 ft 312 kts 256°
2026-05-05 06:09 34.68153 33.33898 10810 ft 333 kts 266°
2026-05-05 06:09 34.68188 33.31048 11337 ft 340 kts 274°
2026-05-05 06:09 34.68318 33.28161 12068 ft 343 kts 273°
2026-05-05 06:10 34.68430 33.25252 12795 ft 344 kts 272°
2026-05-05 06:10 34.68535 33.22334 13549 ft 346 kts 272°
2026-05-05 06:10 34.68640 33.19408 14210 ft 347 kts 273°
2026-05-05 06:10 34.68747 33.16494 14836 ft 349 kts 273°
2026-05-05 06:11 34.68860 33.13533 15446 ft 351 kts 274°
2026-05-05 06:11 34.68978 33.10543 16070 ft 353 kts 274°
2026-05-05 06:11 34.69096 33.07581 16686 ft 356 kts 274°
2026-05-05 06:11 34.69213 33.04566 17311 ft 358 kts 274°
2026-05-05 06:12 34.69328 33.01531 17950 ft 360 kts 274°
2026-05-05 06:12 34.69445 32.98463 18539 ft 362 kts 274°
2026-05-05 06:12 34.69563 32.95419 19055 ft 365 kts 274°
2026-05-05 06:12 34.69683 32.92332 19587 ft 367 kts 274°
2026-05-05 06:13 34.69801 32.89214 20114 ft 369 kts 274°
2026-05-05 06:13 34.69917 32.86086 20595 ft 372 kts 275°
2026-05-05 06:13 34.70034 32.82933 21054 ft 374 kts 275°
2026-05-05 06:13 34.70151 32.79759 21522 ft 376 kts 275°
2026-05-05 06:14 34.70266 32.76586 21969 ft 379 kts 275°
2026-05-05 06:14 34.70381 32.73363 22414 ft 380 kts 275°
2026-05-05 06:14 34.70494 32.70180 22834 ft 383 kts 275°
2026-05-05 06:14 34.70606 32.66928 23260 ft 385 kts 275°
2026-05-05 06:15 34.70721 32.63660 23638 ft 387 kts 275°
2026-05-05 06:15 34.70839 32.60381 23944 ft 389 kts 276°
2026-05-05 06:15 34.70957 32.57071 24242 ft 392 kts 276°
2026-05-05 06:15 34.71073 32.53750 24553 ft 394 kts 276°
2026-05-05 06:16 34.71161 32.50446 24873 ft 397 kts 273°
2026-05-05 06:16 34.71013 32.47072 25180 ft 401 kts 271°
2026-05-05 06:16 34.70836 32.43671 25479 ft 403 kts 271°
2026-05-05 06:16 34.70654 32.40268 25785 ft 404 kts 271°
2026-05-05 06:17 34.70470 32.36880 26046 ft 406 kts 271°
2026-05-05 06:17 34.70283 32.33437 26277 ft 409 kts 271°
2026-05-05 06:17 34.70095 32.29969 26507 ft 412 kts 271°
2026-05-05 06:17 34.69907 32.26486 26761 ft 414 kts 271°
2026-05-05 06:18 34.69717 32.22985 27018 ft 415 kts 271°
2026-05-05 06:18 34.69526 32.19463 27273 ft 417 kts 271°
2026-05-05 06:18 34.69338 32.15967 27527 ft 418 kts 272°
2026-05-05 06:18 34.69145 32.12420 27759 ft 420 kts 271°
2026-05-05 06:19 34.68949 32.08869 28028 ft 420 kts 272°
2026-05-05 06:19 34.68749 32.05324 28343 ft 420 kts 272°
2026-05-05 06:19 34.68548 32.01810 28634 ft 420 kts 272°
2026-05-05 06:19 34.68346 31.98268 28961 ft 420 kts 272°
2026-05-05 06:20 34.68193 31.94719 29288 ft 415 kts 276°
2026-05-05 06:20 34.68464 31.91295 29610 ft 408 kts 285°
2026-05-05 06:20 34.69223 31.87993 29944 ft 402 kts 295°
2026-05-05 06:20 34.70418 31.84936 30246 ft 397 kts 303°
2026-05-05 06:21 34.71837 31.82050 30512 ft 397 kts 303°
2026-05-05 06:21 34.73253 31.79162 30769 ft 397 kts 303°
2026-05-05 06:21 34.74651 31.76301 31004 ft 398 kts 303°
2026-05-05 06:21 34.76065 31.73396 31263 ft 398 kts 303°
2026-05-05 06:22 34.77476 31.70489 31534 ft 398 kts 302°
2026-05-05 06:22 34.78865 31.67620 31803 ft 397 kts 302°
2026-05-05 06:22 34.80275 31.64708 32073 ft 397 kts 302°
2026-05-05 06:22 34.81677 31.61807 32349 ft 397 kts 302°
2026-05-05 06:23 34.83081 31.58907 32616 ft 397 kts 302°
2026-05-05 06:23 34.84468 31.56041 32883 ft 397 kts 302°
2026-05-05 06:23 34.85875 31.53138 33146 ft 397 kts 302°
2026-05-05 06:23 34.87277 31.50245 33376 ft 397 kts 302°
2026-05-05 06:24 34.88682 31.47339 33626 ft 397 kts 302°
2026-05-05 06:24 34.90085 31.44432 33898 ft 397 kts 302°
2026-05-05 06:24 34.91471 31.41560 34140 ft 397 kts 302°
2026-05-05 06:24 34.92876 31.38650 34355 ft 397 kts 302°
2026-05-05 06:25 34.94277 31.35739 34561 ft 397 kts 301°
2026-05-05 06:25 34.95665 31.32849 34759 ft 398 kts 301°
2026-05-05 06:25 34.97069 31.29923 34956 ft 398 kts 301°
2026-05-05 06:25 34.98472 31.26996 35145 ft 399 kts 301°
2026-05-05 06:26 34.99863 31.24093 35315 ft 399 kts 301°
2026-05-05 06:26 35.01262 31.21168 35481 ft 400 kts 301°
2026-05-05 06:26 35.02673 31.18223 35654 ft 400 kts 301°
2026-05-05 06:26 35.04065 31.15320 35825 ft 400 kts 301°
2026-05-05 06:27 35.05472 31.12385 35954 ft 402 kts 301°
2026-05-05 06:27 35.08317 31.06428 35990 ft 406 kts 301°
2026-05-05 06:28 35.11152 31.00489 35986 ft 407 kts 301°
2026-05-05 06:28 35.14007 30.94485 35976 ft 408 kts 301°
2026-05-05 06:29 35.16841 30.88504 35983 ft 408 kts 301°
2026-05-05 06:29 35.20393 30.83091 35984 ft 408 kts 313°
2026-05-05 06:30 35.24276 30.78046 35985 ft 408 kts 312°
2026-05-05 06:30 35.28147 30.72993 35991 ft 408 kts 312°
2026-05-05 06:31 35.32008 30.67935 35989 ft 408 kts 312°
2026-05-05 06:31 35.35240 30.63700 35991 ft 408 kts 312°
2026-05-05 06:32 35.39124 30.58603 35995 ft 408 kts 312°
2026-05-05 06:32 35.42998 30.53507 35998 ft 408 kts 312°
2026-05-05 06:33 35.46855 30.48427 36017 ft 408 kts 312°
2026-05-05 06:33 35.50708 30.43342 36005 ft 408 kts 312°
2026-05-05 06:34 35.54583 30.38224 35985 ft 408 kts 312°
2026-05-05 06:34 35.58431 30.33121 35986 ft 408 kts 312°
2026-05-05 06:35 35.62315 30.27990 35984 ft 408 kts 312°
2026-05-05 06:35 35.66166 30.22888 35984 ft 408 kts 312°
2026-05-05 06:36 35.70036 30.17750 35985 ft 409 kts 312°
2026-05-05 06:36 35.73882 30.12626 35987 ft 409 kts 312°
2026-05-05 06:37 35.77737 30.07485 35979 ft 409 kts 312°
2026-05-05 06:37 35.81580 30.02309 36000 ft 408 kts 309°
2026-05-05 06:38 35.84355 29.96253 35993 ft 411 kts 291°
2026-05-05 06:38 35.86181 29.89528 35991 ft 412 kts 290°
2026-05-05 06:39 35.88000 29.82840 35986 ft 412 kts 290°
2026-05-05 06:39 35.89815 29.76154 35975 ft 413 kts 290°
2026-05-05 06:40 35.91632 29.69417 35987 ft 413 kts 290°
2026-05-05 06:40 35.93433 29.62702 35992 ft 413 kts 290°
2026-05-05 06:41 35.95233 29.55987 36000 ft 413 kts 290°
2026-05-05 06:41 35.97051 29.49226 35987 ft 413 kts 290°
2026-05-05 06:42 35.98860 29.42496 35996 ft 413 kts 290°
2026-05-05 06:42 36.00672 29.35760 36003 ft 413 kts 290°
2026-05-05 06:43 36.02476 29.29028 36005 ft 413 kts 290°
2026-05-05 06:43 36.04273 29.22291 35995 ft 413 kts 290°
2026-05-05 06:44 36.06074 29.15513 35999 ft 414 kts 290°
2026-05-05 06:44 36.07858 29.08778 36003 ft 414 kts 290°
2026-05-05 06:45 36.09660 29.02001 36000 ft 414 kts 290°
2026-05-05 06:45 36.11453 28.95236 35997 ft 414 kts 290°
2026-05-05 06:46 36.13235 28.88476 35998 ft 414 kts 290°
2026-05-05 06:46 36.15007 28.81722 36001 ft 415 kts 290°
2026-05-05 06:47 36.16788 28.74907 36007 ft 415 kts 290°
2026-05-05 06:47 36.18558 28.68142 36010 ft 415 kts 290°
2026-05-05 06:48 36.20337 28.61327 35999 ft 416 kts 290°
2026-05-05 06:48 36.22104 28.54532 36001 ft 416 kts 290°
2026-05-05 06:49 36.23878 28.47683 36009 ft 417 kts 290°
2026-05-05 06:49 36.25651 28.40816 36015 ft 417 kts 289°
2026-05-05 06:50 36.27402 28.34003 36006 ft 417 kts 289°
2026-05-05 06:50 36.29169 28.27118 36012 ft 418 kts 289°
2026-05-05 06:51 36.30922 28.20272 36011 ft 419 kts 289°
2026-05-05 06:51 36.32681 28.13358 36025 ft 419 kts 289°
2026-05-05 06:52 36.34571 28.06567 36022 ft 418 kts 295°
2026-05-05 06:52 36.36939 27.99990 36019 ft 418 kts 295°
2026-05-05 06:53 36.39321 27.93369 36022 ft 418 kts 295°
2026-05-05 06:53 36.41679 27.86796 36028 ft 418 kts 295°
2026-05-05 06:54 36.44042 27.80182 36029 ft 419 kts 295°
2026-05-05 06:54 36.46386 27.73590 36035 ft 419 kts 295°
2026-05-05 06:55 36.48754 27.66951 36048 ft 419 kts 295°
2026-05-05 06:55 36.51100 27.60357 36048 ft 419 kts 295°
2026-05-05 06:56 36.53455 27.53712 36060 ft 419 kts 295°
2026-05-05 06:56 36.55815 27.47058 36052 ft 419 kts 295°
2026-05-05 06:57 36.58131 27.40467 36053 ft 419 kts 295°
2026-05-05 06:57 36.60471 27.33792 36062 ft 419 kts 295°
2026-05-05 06:58 36.62796 27.27163 36063 ft 419 kts 295°
2026-05-05 06:58 36.65142 27.20486 36070 ft 420 kts 295°
2026-05-05 06:59 36.67470 27.13838 36048 ft 420 kts 295°
2026-05-05 06:59 36.69804 27.07134 36050 ft 420 kts 295°
2026-05-05 07:00 36.72113 27.00482 36051 ft 421 kts 295°
2026-05-05 07:00 36.74447 26.93759 36060 ft 421 kts 295°
2026-05-05 07:01 36.76770 26.87056 36069 ft 421 kts 295°
2026-05-05 07:01 36.79077 26.80366 36057 ft 421 kts 294°
2026-05-05 07:02 36.81379 26.73657 36066 ft 422 kts 294°
2026-05-05 07:02 36.83695 26.66909 36076 ft 422 kts 294°
2026-05-05 07:03 36.86006 26.60188 36082 ft 422 kts 294°
2026-05-05 07:03 36.88324 26.53436 36080 ft 422 kts 294°
2026-05-05 07:04 36.90616 26.46722 36095 ft 422 kts 294°
2026-05-05 07:04 36.92916 26.39963 36099 ft 421 kts 294°
2026-05-05 07:05 36.95195 26.33244 36106 ft 421 kts 294°
2026-05-05 07:05 36.97469 26.26516 36107 ft 421 kts 294°
2026-05-05 07:06 36.99753 26.19774 36102 ft 420 kts 295°
2026-05-05 07:06 37.02044 26.13039 36108 ft 419 kts 295°
2026-05-05 07:07 37.04304 26.06367 36114 ft 419 kts 295°
2026-05-05 07:07 37.06581 25.99636 36107 ft 419 kts 295°
2026-05-05 07:08 37.08841 25.92940 36093 ft 418 kts 295°
2026-05-05 07:08 37.11101 25.86219 36098 ft 417 kts 295°
2026-05-05 07:09 37.13352 25.79513 36099 ft 417 kts 295°
2026-05-05 07:09 37.15583 25.72826 36099 ft 416 kts 295°
2026-05-05 07:10 37.17809 25.66149 36093 ft 416 kts 295°
2026-05-05 07:10 37.20054 25.59425 36083 ft 415 kts 295°
2026-05-05 07:11 37.22284 25.52729 36087 ft 415 kts 295°
2026-05-05 07:11 37.24473 25.46048 36087 ft 414 kts 295°
2026-05-05 07:12 37.26742 25.39430 36084 ft 412 kts 302°
2026-05-05 07:12 37.30338 25.33912 36080 ft 408 kts 320°
2026-05-05 07:13 37.34924 25.29770 36082 ft 407 kts 324°
2026-05-05 07:13 37.39565 25.25656 36089 ft 407 kts 324°
2026-05-05 07:14 37.44186 25.21545 36095 ft 407 kts 324°
2026-05-05 07:14 37.48802 25.17430 36104 ft 408 kts 324°
2026-05-05 07:15 37.53406 25.13306 36102 ft 408 kts 324°
2026-05-05 07:15 37.58047 25.09155 36102 ft 408 kts 324°
2026-05-05 07:16 37.62666 25.05029 36104 ft 408 kts 324°
2026-05-05 07:16 37.66524 25.01573 36108 ft 409 kts 324°
2026-05-05 07:17 37.71172 24.97401 36104 ft 408 kts 324°
2026-05-05 07:17 37.75785 24.93255 36121 ft 408 kts 324°
2026-05-05 07:18 37.80430 24.89076 36121 ft 408 kts 324°
2026-05-05 07:18 37.85024 24.84924 36119 ft 408 kts 324°
2026-05-05 07:19 37.89660 24.80735 36116 ft 408 kts 324°
2026-05-05 07:19 37.94259 24.76568 36115 ft 408 kts 324°
2026-05-05 07:20 37.98876 24.72382 36113 ft 407 kts 324°
2026-05-05 07:20 38.01169 24.70303 35867 ft 407 kts 324°
2026-05-05 07:20 38.03482 24.68200 35623 ft 407 kts 324°
2026-05-05 07:20 38.05763 24.66125 35381 ft 406 kts 324°
2026-05-05 07:21 38.08061 24.64032 35117 ft 406 kts 324°
2026-05-05 07:21 38.10370 24.61932 34373 ft 407 kts 324°
2026-05-05 07:21 38.12680 24.59829 33493 ft 408 kts 324°
2026-05-05 07:21 38.14985 24.57728 32661 ft 407 kts 324°
2026-05-05 07:22 38.17273 24.55644 31738 ft 409 kts 324°
2026-05-05 07:22 38.19603 24.53517 30758 ft 413 kts 324°
2026-05-05 07:22 38.21946 24.51370 29674 ft 417 kts 324°
2026-05-05 07:22 38.24282 24.49220 28552 ft 420 kts 324°
2026-05-05 07:23 38.26666 24.47021 27443 ft 423 kts 323°
2026-05-05 07:23 38.29080 24.44794 26282 ft 427 kts 323°
2026-05-05 07:23 38.31466 24.42596 25179 ft 431 kts 323°
2026-05-05 07:23 38.33908 24.40349 24252 ft 431 kts 323°
2026-05-05 07:24 38.36341 24.38109 23343 ft 429 kts 323°
2026-05-05 07:24 38.38760 24.35876 22503 ft 425 kts 323°
2026-05-05 07:24 38.41121 24.33694 21737 ft 421 kts 323°
2026-05-05 07:24 38.43156 24.31814 21081 ft 418 kts 323°
2026-05-05 07:25 38.45445 24.29699 20335 ft 415 kts 324°
2026-05-05 07:25 38.47749 24.27567 19613 ft 411 kts 324°
2026-05-05 07:25 38.50064 24.25423 18881 ft 409 kts 324°
2026-05-05 07:26 38.52363 24.23290 18137 ft 406 kts 324°
2026-05-05 07:26 38.54641 24.21170 17448 ft 401 kts 324°
2026-05-05 07:26 38.56860 24.19101 16817 ft 396 kts 324°
2026-05-05 07:26 38.59084 24.17032 16194 ft 392 kts 324°
2026-05-05 07:27 38.61283 24.14985 15611 ft 387 kts 325°
2026-05-05 07:27 38.63425 24.12987 15056 ft 384 kts 325°
2026-05-05 07:27 38.65584 24.10974 14492 ft 380 kts 326°
2026-05-05 07:27 38.67722 24.08979 13911 ft 378 kts 326°
2026-05-05 07:28 38.69821 24.07019 13285 ft 374 kts 326°
2026-05-05 07:28 38.71912 24.05066 12667 ft 370 kts 326°
2026-05-05 07:28 38.73984 24.03131 12034 ft 366 kts 326°
2026-05-05 07:28 38.76037 24.01214 11389 ft 363 kts 326°
2026-05-05 07:29 38.78020 23.99355 11167 ft 349 kts 326°
2026-05-05 07:29 38.79938 23.97551 11032 ft 333 kts 326°
2026-05-05 07:29 38.81773 23.95824 10911 ft 318 kts 327°
2026-05-05 07:29 38.83508 23.94194 10790 ft 305 kts 327°
2026-05-05 07:30 38.85189 23.92614 10669 ft 293 kts 327°
2026-05-05 07:30 38.88384 23.89613 10353 ft 280 kts 327°
2026-05-05 07:30 38.89964 23.88133 10300 ft 280 kts 327°
2026-05-05 07:31 38.91521 23.86670 10209 ft 279 kts 327°
2026-05-05 07:31 38.93092 23.85193 10091 ft 279 kts 327°
2026-05-05 07:31 38.94672 23.83710 9631 ft 281 kts 327°
2026-05-05 07:31 38.96252 23.82227 9231 ft 279 kts 327°
2026-05-05 07:32 38.97820 23.80753 8808 ft 278 kts 327°
2026-05-05 07:32 38.99358 23.79304 8405 ft 276 kts 326°
2026-05-05 07:32 39.00906 23.77838 8004 ft 274 kts 326°
2026-05-05 07:32 39.02440 23.76384 7607 ft 272 kts 326°
2026-05-05 07:33 39.03963 23.74944 7211 ft 270 kts 326°
2026-05-05 07:33 39.05474 23.73515 6822 ft 268 kts 325°
2026-05-05 07:33 39.06961 23.72109 6436 ft 267 kts 324°
2026-05-05 07:33 39.08455 23.70694 6036 ft 265 kts 324°
2026-05-05 07:34 39.09942 23.69284 5649 ft 264 kts 324°
2026-05-05 07:34 39.11408 23.67895 5271 ft 263 kts 324°
2026-05-05 07:34 39.12865 23.66490 4887 ft 261 kts 319°
2026-05-05 07:34 39.13956 23.64645 4508 ft 260 kts 294°
2026-05-05 07:35 39.14313 23.62398 4112 ft 261 kts 269°
2026-05-05 07:35 39.13862 23.60187 3994 ft 250 kts 244°
2026-05-05 07:35 39.12807 23.58490 4007 ft 235 kts 223°
2026-05-05 07:35 39.11508 23.57316 4005 ft 222 kts 211°
2026-05-05 07:36 39.10176 23.56449 3909 ft 212 kts 209°
2026-05-05 07:36 39.08877 23.55606 3782 ft 206 kts 209°
2026-05-05 07:36 39.07604 23.54774 3658 ft 204 kts 209°
2026-05-05 07:36 39.06337 23.53944 3535 ft 203 kts 209°
2026-05-05 07:37 39.05074 23.53116 3414 ft 203 kts 209°
2026-05-05 07:37 39.03814 23.52291 3038 ft 212 kts 209°
2026-05-05 07:37 39.02553 23.51259 2453 ft 215 kts 232°
2026-05-05 07:37 39.01993 23.49568 2076 ft 199 kts 269°
2026-05-05 07:38 39.02278 23.47915 1939 ft 188 kts 300°
2026-05-05 07:38 39.03129 23.46822 1879 ft 167 kts 329°
2026-05-05 07:38 39.04176 23.46470 1830 ft 149 kts 355°
2026-05-05 07:38 39.05190 23.46688 1780 ft 145 kts
2026-05-05 07:39 39.06154 23.46969 1732 ft 143 kts
2026-05-05 07:39 39.07119 23.47249 1691 ft 142 kts
2026-05-05 07:39 39.08074 23.47525 1656 ft 141 kts
2026-05-05 07:39 39.09038 23.47806 1616 ft 141 kts
2026-05-05 07:40 39.10000 23.48083 1468 ft 141 kts
2026-05-05 07:40 39.10966 23.48357 1270 ft 141 kts
2026-05-05 07:40 39.11918 23.48627 1082 ft 141 kts
2026-05-05 07:40 39.12874 23.48897 894 ft 141 kts 10°
2026-05-05 07:41 39.13826 23.49178 710 ft 142 kts 11°
2026-05-05 07:41 39.14794 23.49423 535 ft 142 kts
2026-05-05 07:41 39.15778 23.49571 322 ft 143 kts 10°
2026-05-05 07:41 39.16731 23.49925 111 ft 141 kts 21°
2026-05-05 07:42 39.17638 23.50343 42 ft 127 kts 19°
2026-05-05 07:42 39.18197 23.50577 52 ft 48 kts 20°
2026-05-05 07:42 39.18363 23.50651 55 ft 11 kts
2026-05-05 07:42 39.18410 23.50670 53 ft 2 kts 102°
2026-05-05 07:43 39.18394 23.50667 53 ft 5 kts 193°
2026-05-05 07:43 39.18308 23.50630 54 ft 16 kts 199°
2026-05-05 07:43 39.18182 23.50575 46 ft 22 kts 199°
2026-05-05 07:43 39.18024 23.50506 40 ft 26 kts 198°
2026-05-05 07:44 39.17923 23.50414 41 ft 13 kts 259°
2026-05-05 07:44 39.17903 23.50329 41 ft 5 kts 294°
2026-05-05 07:44 39.17925 23.50304 41 ft 4 kts 310°
2026-05-05 07:44 39.17933 23.50278 41 ft 3 kts 288°
2026-05-05 07:45 39.17939 23.50256 39 ft 2 kts 289°
2026-05-05 07:45 39.17943 23.50239 40 ft 0 kts 287°
2026-05-05 07:50 39.17921 23.50254 39 ft 0 kts 288°